Weather History for Minneapolis Flying Cloud, MN

Change the Weather History Date:

Sunday, March 9, 2014

  Actual Average Record
Temperature  
Mean Temperature 30 °F -  
Max Temperature 44 °F 30 °F 46 °F (2006)
Min Temperature 15 °F 15 °F -11 °F (2003)
Degree Days  
Heating Degree Days 36    
Moisture  
Dew Point 25 °F    
Average Humidity 71    
Maximum Humidity 84    
Minimum Humidity 60    
Precipitation  
Precipitation 0.00 in - - ()
Sea Level Pressure  
Sea Level Pressure 29.83 in    
Wind  
Wind Speed 11 mph (SSW)    
Max Wind Speed 17 mph    
Max Gust Speed 23 mph    
Visibility 10 miles    
Events      
Averages and records for this station are not official NWS values.
T = Trace of Precipitation, MM = Missing Value Source: NWS Daily Summary

Daily Weather History Graph

Daily Weather History Graph

Search for Another Location

Airport:

Trip Planner

Search our weather history database for the weather conditions in past years. The results will help you decide how hot, cold, wet, or windy it might be!

Date:

Astronomy

Mar. 09, 2014 Rise Set
Actual Time 7:37 AM CDT 7:12 PM CDT
Civil Twilight 7:08 AM CDT 7:41 PM CDT
Nautical Twilight 6:34 AM CDT 8:15 PM CDT
Astronomical Twilight 6:00 AM CDT 8:49 PM CDT
Moon 12:54 PM CDT (3/9) 3:14 AM CDT (3/9)
Length of Visible Light 12h 33m
Length of Day
11h 34m
First Quarter, 61% of the Moon is Illuminated
Mar 9
First Quarter
Mar 16
Full
Mar 23
Last Quarter
Mar 30
New
Apr 7
First Quarter

Hourly Weather History & Observations

Time (CDT) Temp. Windchill Dew Point Humidity Pressure Visibility Wind Dir Wind Speed Gust Speed Precip Events Conditions
12:53 AM 15.1 °F 3.3 °F 10.9 °F 84% 30.17 in 10.0 mi South 9.2 mph - N/A   Clear
1:53 AM 17.1 °F 5.8 °F 12.0 °F 81% 30.14 in 10.0 mi South 9.2 mph - N/A   Clear
3:53 AM 18.0 °F 6.1 °F 12.9 °F 81% 30.11 in 10.0 mi SSW 10.4 mph - N/A   Clear
4:53 AM 19.0 °F 7.5 °F 12.9 °F 77% 30.06 in 10.0 mi South 10.4 mph - N/A   Clear
5:53 AM 23.0 °F 10.6 °F 15.1 °F 72% 30.01 in 10.0 mi South 13.8 mph - N/A   Clear
6:53 AM 25.0 °F 13.6 °F 16.0 °F 69% 29.99 in 10.0 mi SSW 12.7 mph - N/A   Clear
7:53 AM 25.0 °F 12.6 °F 17.1 °F 72% 29.95 in 10.0 mi SSW 15.0 mph - N/A   Clear
8:53 AM 27.0 °F 14.3 °F 18.0 °F 69% 29.91 in 10.0 mi South 17.3 mph - N/A   Clear
9:53 AM 28.9 °F 17.3 °F 19.9 °F 69% 29.87 in 10.0 mi South 16.1 mph - N/A   Clear
10:53 AM 33.1 °F 23.4 °F 23.0 °F 66% 29.82 in 10.0 mi SSW 13.8 mph - N/A   Clear
11:53 AM 35.1 °F 26.4 °F 25.0 °F 67% 29.79 in 10.0 mi SSW 12.7 mph 23.0 mph N/A   Clear
12:53 PM 37.9 °F 29.6 °F 27.0 °F 65% 29.77 in 10.0 mi SSW 13.8 mph 21.9 mph N/A   Clear
1:53 PM 41.0 °F 33.5 °F 28.9 °F 62% 29.75 in 10.0 mi SSW 13.8 mph - N/A   Clear
2:53 PM 42.1 °F 34.9 °F 28.9 °F 60% 29.73 in 10.0 mi SSW 13.8 mph - N/A   Clear
3:53 PM 42.1 °F 37.7 °F 30.0 °F 62% 29.72 in 10.0 mi SSW 6.9 mph - N/A   Clear
4:53 PM 44.1 °F 37.7 °F 30.9 °F 60% 29.70 in 10.0 mi WSW 12.7 mph - N/A   Clear
5:53 PM 44.1 °F 39.0 °F 32.0 °F 63% 29.71 in 10.0 mi WSW 9.2 mph - N/A   Clear
6:53 PM 42.1 °F 37.7 °F 32.0 °F 67% 29.70 in 10.0 mi WSW 6.9 mph - N/A   Clear
7:53 PM 39.9 °F 35.8 °F 32.0 °F 73% 29.70 in 10.0 mi WSW 5.8 mph - N/A   Clear
8:53 PM 39.0 °F 33.4 °F 32.0 °F 76% 29.70 in 10.0 mi SW 8.1 mph - N/A   Partly Cloudy
9:53 PM 39.0 °F 34.0 °F 33.1 °F 79% 29.70 in 10.0 mi SW 6.9 mph - N/A   Partly Cloudy
10:53 PM 39.0 °F 36.8 °F 33.1 °F 79% 29.68 in 10.0 mi SW 3.5 mph - N/A   Mostly Cloudy
11:53 PM 39.0 °F 34.8 °F 33.1 °F 79% 29.67 in 10.0 mi SSW 5.8 mph - N/A   Scattered Clouds
12:53 AM 39.9 °F 36.7 °F 33.1 °F 77% 29.65 in 10.0 mi SW 4.6 mph - N/A   Mostly Cloudy